This is the latest recevied weather packets stored in our database for station/object N6RDS-8. If no packets are shown the sender has not sent any weather packets the latest 10 day(s).
| Time | Temp. | Humidity | Pressure | Rain* | Wind** | Luminosity | Snow |
|---|---|---|---|---|---|---|---|
| 1777343274 | 20.56° C | 18% | 1016.7 hPa | 0 mm | - | 0 W/m² | - |
| 1777342972 | 21.11° C | 18% | 1016.5 hPa | 0 mm | - | 0 W/m² | - |
| 1777342668 | 21.11° C | 17% | 1016.5 hPa | 0 mm | - | 0 W/m² | - |
| 1777342365 | 21.67° C | 17% | 1016.6 hPa | 0 mm | - | 0 W/m² | - |
| 1777342062 | 21.67° C | 17% | 1016.4 hPa | 0 mm | - | 1 W/m² | - |
| 1777341758 | 22.22° C | 17% | 1016.2 hPa | 0 mm | - | 2 W/m² | - |
| 1777341455 | 22.78° C | 17% | 1016.2 hPa | 0 mm | - | 4 W/m² | - |
| 1777341151 | 22.78° C | 17% | 1016 hPa | 0 mm | - | 6 W/m² | - |
| 1777340848 | 22.78° C | 17% | 1016 hPa | 0 mm | - | 9 W/m² | - |
| 1777340547 | 23.33° C | 17% | 1016 hPa | 0 mm | - | 13 W/m² | - |
| 1777340243 | 23.33° C | 17% | 1015.8 hPa | 0 mm | - | 16 W/m² | - |
| 1777339940 | 23.33° C | 17% | 1015.8 hPa | 0 mm | - | 19 W/m² | - |
| 1777339638 | 23.89° C | 17% | 1015.9 hPa | 0 mm | - | 22 W/m² | - |
| 1777339335 | 23.89° C | 16% | 1015.7 hPa | 0 mm | - | 25 W/m² | - |
| 1777339033 | 23.89° C | 16% | 1015.3 hPa | 0 mm | - | 28 W/m² | - |
| 1777338730 | 24.44° C | 17% | 1015.8 hPa | 0 mm | - | 31 W/m² | - |
| 1777338428 | 24.44° C | 17% | 1015.5 hPa | 0 mm | - | 33 W/m² | - |
| 1777338124 | 24.44° C | 17% | 1015.6 hPa | 0 mm | - | 36 W/m² | - |
| 1777337820 | 25° C | 16% | 1015.5 hPa | 0 mm | - | 49 W/m² | - |
| 1777337518 | 25° C | 16% | 1015.6 hPa | 0 mm | - | 77 W/m² | - |
| 1777337214 | 25° C | 15% | 1015.3 hPa | 0 mm | - | 101 W/m² | - |
| 1777336912 | 25.56° C | 16% | 1015.6 hPa | 0 mm | - | 119 W/m² | - |
| 1777336611 | 25.56° C | 15% | 1015.6 hPa | 0 mm | - | 132 W/m² | - |
| 1777336308 | 25.56° C | 15% | 1015.5 hPa | 0 mm | - | 146 W/m² | - |
| 1777336005 | 26.11° C | 15% | 1015.3 hPa | 0 mm | - | 160 W/m² | - |
* Rain latest hour (hover to see other rain measurements)
** Current wind speed in m/s (hover to see current wind gust speed)